[[{"header":{"parameterUnit":"m.s-1","parameterCategory":1,"la1":30.2991,"la2":30.254,"lo1":-89.0895,"lo2":-89.0444,"dx":0.0017,"dy":0.0017,"nx":28,"ny":28,"refTime":"2022-12-14T15:00:00:Z","depth":0,"parameterNumber":2,"parameterNumberName":"U-component_of_WINDS"},"data":[0,0,0,0,0,0,0,0,0,0,0,0,0,0,0,0,0,0,0,0,0,0,0,0,0,0,0,0,0,0,0,0,0,0,0,0,0,0,0,0,0,0,0,0,0,0,0,0,0,0,0,0,0,0,0,0,0,0,2.0552,2.0552,0,2.0579,2.0579,2.0579,2.0581,2.058,2.058,2.058,2.0608,2.0609,2.061,0,0,0,0,0,0,0,0,0,0,0,0,0,2.0502,2.0503,2.0552,2.0552,2.0552,2.0579,2.0579,2.058,2.0581,2.058,2.058,2.058,2.0607,2.0609,2.061,0,0,0,0,0,0,0,0,0,0,0,0,0,2.0526,2.0503,2.0552,2.0556,2.0557,2.0579,2.0579,2.058,2.0581,2.058,2.058,2.0579,2.0607,2.0608,2.061,2.0629,0,0,2.0615,2.0615,0,0,0,0,0,0,0,0,2.0525,2.0528,2.0555,2.0556,2.0557,2.0576,2.0572,2.0596,2.0581,2.0572,2.058,2.0579,2.0597,2.06,2.0606,2.0631,2.0632,2.0615,2.0616,2.0616,2.0617,0,0,0,0,0,0,0,2.0523,2.0527,2.0562,2.0556,2.0556,2.0557,2.056,2.0577,2.0587,2.0572,2.0573,2.0576,2.0598,2.0604,2.0607,2.0632,2.0615,2.0616,2.0617,2.0618,2.0675,2.0676,0,0,0,0,0,0,2.052,2.0525,2.0562,2.0563,2.0539,2.0558,2.0562,2.057,2.0587,2.0589,2.0576,2.0576,2.0602,2.0605,2.0608,2.0632,2.0616,2.0618,2.0619,2.0675,2.0675,2.0676,0,0,0,0,0,0,2.0519,2.0523,2.056,2.0544,2.0549,2.056,2.0569,2.0571,2.0578,2.059,2.0591,2.0581,2.0602,2.0605,2.0624,2.0633,2.0619,2.062,2.0674,2.0675,2.0676,2.068,0,0,0,0,0,0,2.0518,2.0523,2.053,2.0544,2.055,2.0576,2.057,2.0572,2.058,2.058,2.0595,2.0597,2.0602,2.0622,2.0626,2.0635,2.0621,2.0673,2.0674,2.0675,2.0679,2.0681,2.0682,0,0,0,0,0,2.0516,2.053,2.053,2.0535,2.0559,2.0577,2.058,2.0585,2.0581,2.0588,2.0596,2.0596,2.0631,2.0624,2.0628,2.0638,2.0673,2.0674,2.0675,2.0678,2.0681,2.0682,0,0,0,0,0,0,2.0516,2.0532,2.0533,2.0552,2.0563,2.0577,2.0586,2.0587,2.06,2.0599,2.0606,2.0609,2.0628,2.0635,2.0626,2.0658,2.0652,2.0654,2.0652,2.0655,2.0656,2.0654,2.0623,0,0,0,0,0,2.0519,2.0532,2.0545,2.056,2.0566,2.0575,2.0583,2.0587,2.0598,2.0603,2.0612,2.0624,2.0638,2.0647,2.066,2.068,2.0684,2.0689,2.0691,2.0692,2.0694,2.0706,2.0709,2.068,2.068,2.068,0,0,2.0524,2.0534,2.0541,2.0561,2.057,2.0583,2.0579,2.0593,2.0604,2.0605,2.0623,2.0631,2.0644,2.0664,2.0674,2.0671,2.0703,2.0694,2.0695,2.0696,2.0708,2.0711,2.0713,2.0681,2.0681,2.0681,0,0,2.0539,2.0548,2.0563,2.0572,2.0586,2.0592,2.0596,2.061,2.0615,2.0633,2.0635,2.0648,2.0671,2.0681,2.0689,2.071,2.071,2.0714,2.0723,2.0735,2.0737,2.0739,2.0747,2.0749,2.0716,2.0716,2.0716,0,2.0544,2.0564,2.057,2.0585,2.0593,2.0596,2.0611,2.062,2.0637,2.0643,2.064,2.067,2.0679,2.0702,2.0707,2.0713,2.0718,2.0712,2.0736,2.0738,2.074,2.0748,2.0751,2.0716,2.0716,2.0716,2.0716,0,2.0569,2.0583,2.0593,2.061,2.062,2.0635,2.0643,2.0653,2.0656,2.0663,2.0682,2.0693,2.0709,2.0715,2.0718,2.0739,2.0736,2.0735,2.0728,2.0743,2.075,2.0753,2.0717,2.0717,2.0717,2.0717,0,0,2.0585,2.0606,2.0609,2.0618,2.0634,2.0645,2.066,2.0676,2.0684,2.0697,2.071,2.073,2.0729,2.0738,2.0742,2.0753,2.0769,2.075,2.075,2.0753,2.0793,2.0795,2.0798,2.077,2.077,2.0771,2.0792,0,2.0603,2.0629,2.0636,2.0659,2.0673,2.0676,2.0689,2.0701,2.0708,2.0721,2.0729,2.0743,2.074,2.0746,2.0756,2.0765,2.0777,2.0764,2.0783,2.0783,2.0779,2.0801,2.0803,2.0822,2.0795,2.0796,2.0796,0,2.0626,2.064,2.0664,2.068,2.0685,2.0697,2.0713,2.0725,2.0739,2.0743,2.0754,2.0757,2.0774,2.0767,2.0791,2.0781,2.079,2.0795,2.0796,2.0798,2.079,2.0804,2.0828,2.0831,2.08,2.08,2.08,0,2.0636,2.066,2.0678,2.0685,2.0703,2.0711,2.0719,2.0733,2.0742,2.0756,2.0762,2.0778,2.0786,2.0798,2.0806,2.0801,2.0829,2.0823,2.0834,2.0833,2.0839,2.0839,2.0865,2.0845,2.0845,2.0845,2.0845,0,2.0655,2.067,2.0683,2.0694,2.0711,2.0719,2.0735,2.0744,2.0755,2.0769,2.0772,2.0785,2.0794,2.0808,2.0814,2.0833,2.0837,2.0841,2.0843,2.0841,2.084,2.0846,2.0845,2.0845,2.0845,2.0845,2.0845,0,2.0668,2.0677,2.0697,2.0713,2.0717,2.0729,2.0743,2.0754,2.0762,2.0779,2.0783,2.0795,2.0812,2.0821,2.0841,2.0846,2.0867,2.0867,2.0862,2.0863,2.0873,2.0872,2.0904,2.0909,2.0885,2.0885,2.0885,0,2.068,2.0691,2.0709,2.0718,2.0726,2.074,2.075,2.0759,2.0769,2.0786,2.0795,2.0812,2.0826,2.0852,2.0863,2.0879,2.088,2.0891,2.0883,2.0881,2.0881,2.088,2.0881,2.0892,2.0892,2.0892,2.0892,0,2.0699,2.0703,2.0717,2.0733,2.0745,2.0758,2.077,2.0778,2.0788,2.08,2.0817,2.0827,2.0849,2.0866,2.0883,2.0892,2.0894,2.0895,2.0898,2.0896,2.0893,2.0895,2.0866,2.0894,2.0894,2.0894,2.0894,2.0894,2.0712,2.0723,2.0737,2.0753,2.0763,2.0775,2.0787,2.0796,2.081,2.0828,2.0833,2.0851,2.0865,2.0889,2.0898,2.0913,2.0911,2.0915,2.0917,2.0918,2.0918,2.0891,2.0916,2.0916,2.0916,2.0916,2.0916,0,2.0732,2.0741,2.0756,2.0774,2.0786,2.0787,2.0802,2.0812,2.0828,2.0841,2.0855,2.0875,2.0892,2.0904,2.0922,2.0931,2.0933,2.0935,2.0935,2.0937,2.0919,2.0914,2.0934,2.0934,2.0934,2.0934,2.0934,2.0934,2.0744,2.0762,2.0768,2.0792,2.0802,2.082,2.0828,2.0839,2.085,2.0872,2.0886,2.0894,2.0907,2.0926,2.0941,2.0945,2.0951,2.0953,2.0957,2.094,2.0938,2.0936,2.0932,2.0955,2.0955,2.0973,2.0974,2.0974]},{"header":{"parameterUnit":"m.s-1","parameterCategory":1,"la1":30.2991,"la2":30.254,"lo1":-89.0895,"lo2":-89.0444,"dx":0.0017,"dy":0.0017,"nx":28,"ny":28,"refTime":"2022-12-14T15:00:00:Z","depth":0,"parameterNumber":3,"parameterNumberName":"V-component_of_WINDS"},"data":[0,0,0,0,0,0,0,0,0,0,0,0,0,0,0,0,0,0,0,0,0,0,0,0,0,0,0,0,0,0,0,0,0,0,0,0,0,0,0,0,0,0,0,0,0,0,0,0,0,0,0,0,0,0,0,0,0,0,-2.1486,-2.1487,0,-2.1573,-2.1574,-2.1575,-2.1615,-2.1615,-2.1615,-2.1615,-2.1703,-2.1705,-2.1708,0,0,0,0,0,0,0,0,0,0,0,0,0,-2.1354,-2.1356,-2.1486,-2.1487,-2.1488,-2.1573,-2.1574,-2.1575,-2.1615,-2.1615,-2.1615,-2.1615,-2.1702,-2.1705,-2.1708,0,0,0,0,0,0,0,0,0,0,0,0,0,-2.1423,-2.1357,-2.1486,-2.1518,-2.1522,-2.1573,-2.1574,-2.1576,-2.1615,-2.1615,-2.1615,-2.1615,-2.1701,-2.1705,-2.1708,-2.1733,0,0,-2.1719,-2.1721,0,0,0,0,0,0,0,0,-2.1419,-2.1428,-2.1512,-2.1516,-2.152,-2.1583,-2.156,-2.1628,-2.1615,-2.158,-2.1615,-2.1615,-2.1663,-2.167,-2.1686,-2.1737,-2.174,-2.172,-2.1722,-2.1723,-2.1724,0,0,0,0,0,0,0,-2.1414,-2.1424,-2.152,-2.1513,-2.1518,-2.1529,-2.1538,-2.1573,-2.1621,-2.1583,-2.1586,-2.1596,-2.1665,-2.1683,-2.1689,-2.1742,-2.172,-2.1723,-2.1725,-2.1726,-2.1819,-2.1819,0,0,0,0,0,0,-2.1404,-2.142,-2.1517,-2.1523,-2.1469,-2.1531,-2.1542,-2.1563,-2.1621,-2.1629,-2.1596,-2.1597,-2.1677,-2.1684,-2.1692,-2.1726,-2.1723,-2.1727,-2.1729,-2.1818,-2.1819,-2.1819,0,0,0,0,0,0,-2.1401,-2.1413,-2.1514,-2.1472,-2.1486,-2.1533,-2.1557,-2.1565,-2.1583,-2.1631,-2.1639,-2.1605,-2.1677,-2.1687,-2.1723,-2.1729,-2.1728,-2.1732,-2.1818,-2.1819,-2.1819,-2.1792,0,0,0,0,0,0,-2.1397,-2.1411,-2.1421,-2.1472,-2.1488,-2.1543,-2.1557,-2.1567,-2.1589,-2.1592,-2.1641,-2.1649,-2.1678,-2.1717,-2.1726,-2.1734,-2.1734,-2.1818,-2.1818,-2.1819,-2.1793,-2.1792,-2.1791,0,0,0,0,0,-2.1392,-2.1409,-2.1421,-2.1433,-2.1501,-2.1543,-2.1552,-2.1585,-2.1589,-2.1599,-2.1631,-2.1648,-2.1727,-2.1721,-2.1731,-2.174,-2.1817,-2.1818,-2.1819,-2.1793,-2.1792,-2.1791,0,0,0,0,0,0,-2.1356,-2.1416,-2.143,-2.1464,-2.1498,-2.155,-2.1564,-2.1582,-2.1616,-2.1617,-2.1655,-2.1666,-2.1699,-2.1723,-2.1715,-2.1768,-2.1774,-2.1777,-2.1751,-2.175,-2.1749,-2.1743,-2.1737,0,0,0,0,0,-2.1352,-2.1381,-2.1432,-2.1457,-2.1474,-2.1516,-2.1535,-2.1558,-2.1595,-2.1609,-2.1643,-2.1678,-2.1711,-2.1732,-2.1765,-2.1797,-2.1809,-2.1808,-2.1807,-2.1806,-2.1808,-2.1828,-2.1829,-2.1821,-2.1821,-2.1821,0,0,-2.1343,-2.138,-2.1396,-2.1451,-2.148,-2.151,-2.1528,-2.1558,-2.1581,-2.1614,-2.165,-2.1676,-2.1718,-2.1752,-2.1769,-2.1774,-2.1813,-2.1807,-2.1806,-2.1808,-2.1829,-2.183,-2.1831,-2.1822,-2.1822,-2.1822,0,0,-2.1344,-2.1374,-2.1399,-2.1429,-2.1473,-2.1501,-2.1507,-2.1557,-2.1576,-2.1613,-2.1639,-2.1667,-2.1722,-2.1752,-2.1774,-2.1787,-2.1805,-2.1797,-2.1792,-2.1811,-2.1812,-2.1813,-2.1819,-2.182,-2.1799,-2.1799,-2.1799,0,-2.1328,-2.1374,-2.1409,-2.1439,-2.1463,-2.1495,-2.1521,-2.1548,-2.1601,-2.1616,-2.1621,-2.1693,-2.1723,-2.1765,-2.1769,-2.1785,-2.1794,-2.1791,-2.1809,-2.181,-2.1811,-2.1818,-2.182,-2.1798,-2.1798,-2.1798,-2.1798,0,-2.1353,-2.1384,-2.1399,-2.1451,-2.1476,-2.1504,-2.1544,-2.1565,-2.1586,-2.1614,-2.1652,-2.169,-2.1732,-2.1744,-2.1763,-2.179,-2.1791,-2.1802,-2.1809,-2.181,-2.1817,-2.182,-2.1796,-2.1796,-2.1797,-2.1797,0,0,-2.1331,-2.1403,-2.1408,-2.1433,-2.1485,-2.1511,-2.154,-2.1582,-2.1601,-2.1636,-2.1663,-2.171,-2.1721,-2.1746,-2.177,-2.1787,-2.1797,-2.1796,-2.1797,-2.1795,-2.183,-2.1822,-2.1824,-2.1809,-2.181,-2.181,-2.1827,0,-2.1339,-2.1394,-2.1428,-2.1469,-2.15,-2.1532,-2.1558,-2.1593,-2.1621,-2.1651,-2.1681,-2.1714,-2.1725,-2.1741,-2.1759,-2.1792,-2.1804,-2.1791,-2.1834,-2.1835,-2.1823,-2.1827,-2.1819,-2.1832,-2.1829,-2.183,-2.183,0,-2.1355,-2.1392,-2.1437,-2.1488,-2.1502,-2.1525,-2.1567,-2.1595,-2.1637,-2.1655,-2.1685,-2.1709,-2.1742,-2.1746,-2.1793,-2.1784,-2.1803,-2.1822,-2.1824,-2.1829,-2.1833,-2.1833,-2.1837,-2.1839,-2.1834,-2.1834,-2.1834,0,-2.1336,-2.1397,-2.1432,-2.1452,-2.1512,-2.1528,-2.1553,-2.1595,-2.1618,-2.1655,-2.1671,-2.1711,-2.1733,-2.1763,-2.1798,-2.1798,-2.1842,-2.1849,-2.1859,-2.1858,-2.1867,-2.1866,-2.1874,-2.1879,-2.1879,-2.1878,-2.1878,0,-2.1342,-2.1368,-2.1424,-2.1446,-2.1477,-2.1516,-2.1545,-2.1574,-2.1611,-2.1639,-2.1669,-2.1694,-2.1738,-2.177,-2.1797,-2.1832,-2.1842,-2.1858,-2.1865,-2.1856,-2.1854,-2.187,-2.187,-2.1879,-2.1879,-2.1879,-2.1879,0,-2.1326,-2.1364,-2.1405,-2.1459,-2.1474,-2.1494,-2.1541,-2.1564,-2.1593,-2.1628,-2.1639,-2.1685,-2.1724,-2.1762,-2.1813,-2.1832,-2.1867,-2.1876,-2.1853,-2.1857,-2.1866,-2.1865,-2.1885,-2.189,-2.189,-2.189,-2.189,0,-2.1327,-2.1348,-2.1406,-2.1427,-2.1453,-2.1486,-2.1512,-2.1551,-2.1576,-2.1626,-2.1642,-2.1684,-2.1719,-2.1779,-2.1817,-2.1857,-2.1868,-2.1872,-2.1874,-2.1864,-2.1869,-2.1868,-2.1871,-2.1871,-2.1871,-2.1871,-2.1871,0,-2.1325,-2.1344,-2.1379,-2.1422,-2.1451,-2.1486,-2.1522,-2.1538,-2.1584,-2.1611,-2.1651,-2.1678,-2.1732,-2.1773,-2.1818,-2.1845,-2.1866,-2.187,-2.1875,-2.1865,-2.1852,-2.186,-2.1851,-2.1869,-2.1869,-2.1869,-2.187,-2.187,-2.1319,-2.134,-2.1384,-2.1423,-2.1455,-2.1488,-2.1513,-2.1546,-2.1581,-2.1628,-2.1649,-2.1691,-2.1733,-2.1796,-2.1823,-2.1856,-2.1861,-2.1867,-2.1869,-2.187,-2.1868,-2.1846,-2.1864,-2.1864,-2.1864,-2.1864,-2.1864,0,-2.132,-2.135,-2.1386,-2.1436,-2.1467,-2.1485,-2.1526,-2.1551,-2.1587,-2.1625,-2.166,-2.1707,-2.1747,-2.1789,-2.1832,-2.1851,-2.1862,-2.1861,-2.186,-2.1866,-2.1861,-2.1853,-2.1851,-2.1851,-2.1851,-2.1851,-2.1851,-2.1851,-2.1324,-2.1361,-2.1385,-2.1439,-2.147,-2.1511,-2.1533,-2.1565,-2.1596,-2.1648,-2.1682,-2.171,-2.175,-2.1796,-2.1834,-2.1846,-2.1861,-2.1857,-2.1871,-2.1865,-2.1866,-2.1867,-2.186,-2.186,-2.186,-2.1874,-2.1874,-2.1874]}]]